Lapse_Rate
0.5 0.8 1.2 1.6 1.6 1.5 2.2 2.6 3.3 3.8 3.8 3.8 4.0 4.3 4.2 4.1 4.1 4.6 4.9 5.3 5.5 5.3 5.8 6.7 8.8 9.3 9.3
0.3 -0.1 0.6 0.7 1.0 1.4 2.1 2.0 1.9 3.4 4.0 4.0 3.9 4.1 4.0 4.0 4.5 4.8 5.0 5.4 5.3 5.3 5.7 6.3 7.4 9.2 9.3
0.0 -0.7 -0.5 0.3 0.3 0.8 1.9 2.0 2.6 3.3 3.8 4.0 3.6 3.6 3.9 4.5 4.9 5.1 5.2 5.4 5.6 6.0 6.2 6.6 7.5 9.0 9.2
0.3 -0.3 -0.6 -0.3 0.8 1.5 1.8 1.7 2.3 3.1 3.0 3.2 3.0 3.2 4.2 4.7 4.5 4.8 5.3 5.8 6.3 6.1 6.5 6.8 8.0 7.7 9.1
0.2 -0.2 -0.3 0.1 1.1 0.8 2.0 3.0 1.3 1.0 1.7 1.4 1.4 1.8 2.5 3.2 3.9 4.6 5.5 6.2 6.1 6.0 5.9 6.3 6.9 7.7 8.7
0.6 1.0 -0.0 0.3 0.3 1.6 2.4 2.8 2.1 0.5 0.2 0.8 1.1 1.0 2.0 2.8 3.8 4.6 6.1 5.7 5.5 5.4 5.4 6.0 6.3 6.7 8.9
1.7 1.3 0.5 0.9 1.2 1.1 1.6 1.6 0.8 -0.1 0.1 0.8 0.3 1.3 2.0 1.9 3.1 5.6 5.9 5.3 5.1 4.8 5.1 5.7 6.1 7.3 8.4
1.3 0.8 1.1 1.4 1.8 1.7 1.0 -0.0 0.1 0.4 0.5 1.4 0.8 1.0 1.2 1.8 4.1 5.6 5.1 4.7 4.4 4.7 5.1 5.6 5.9 5.9 5.8
2.5 2.8 3.1 2.6 1.4 1.1 0.8 1.4 1.3 1.3 1.2 1.4 1.6 0.7 0.7 1.2 3.2 4.2 3.9 4.2 4.2 4.4 5.0 5.3 5.4 5.5 3.9
1.2 1.2 1.4 2.1 1.5 1.1 1.4 0.7 1.2 1.2 1.6 1.9 1.8 1.0 -0.4 1.6 1.9 2.8 2.7 3.0 3.5 3.8 4.8 4.7 5.0 4.7 3.7
0.1 -0.3 -0.4 -0.3 0.0 0.4 1.0 1.3 1.5 1.4 2.2 -0.3 -0.5 0.3 -1.2 0.3 0.9 1.6 2.0 2.2 1.8 2.2 2.9 3.4 4.1 4.9 4.6
0.2 0.1 0.3 0.3 0.3 0.6 1.1 1.5 2.0 1.6 1.9 1.8 -3.0 -0.8 1.1 0.9 0.5 1.5 2.0 2.2 1.9 1.8 2.2 2.3 2.8 3.4 4.0
0.6 0.4 0.6 0.4 0.6 0.7 1.1 1.2 1.5 2.1 2.6 2.7 0.6 1.6 0.1 -0.5 1.9 1.7 2.3 1.4 1.7 2.6 1.9 2.0 2.3 2.5 1.9
0.4 0.5 0.5 0.3 0.3 0.6 -0.5 0.4 0.3 1.2 2.8 3.5 3.5 1.7 -2.0 0.4 -0.8 1.3 2.8 0.5 2.3 2.5 2.3 2.0 2.6 3.1 3.0
0.6 0.5 0.9 0.8 0.7 0.3 0.0 0.1 -0.7 0.6 0.7 2.5 3.6 2.7 2.1 -0.5 -0.1 1.7 2.0 1.8 3.3 3.2 2.5 1.4 2.1 3.4 3.1
0.1 0.3 -0.1 -0.2 -0.2 0.2 0.2 -1.0 -0.4 0.1 -0.4 0.3 -1.4 -1.4 -1.1 1.2 2.8 2.0 1.9 2.6 3.7 3.1 3.2 2.8 1.5 2.7 3.2
-1.1 -1.8 -2.2 -2.1 -0.9 -1.0 1.7 1.5 0.3 0.8 1.4 2.2 -3.9 -2.4 2.9 -0.1 1.6 6.2 3.4 3.6 3.1 2.3 3.1 2.8 2.2 2.5 2.7
Wind_Speed
1 3 4 8 11 13 14 13 10 7 5 3 4 5 6 6 7 9 9 10 10 11 13 14 16 18 20
2 2 2 5 8 8 8 7 7 6 6 5 5 6 6 7 9 9 8 10 10 12 13 15 17 20 22
3 2 2 3 4 4 4 5 4 5 3 2 3 3 5 7 7 7 7 10 12 13 13 17 19 22 24
3 3 2 2 3 2 2 1 1 3 1 2 3 4 4 5 5 7 8 11 13 12 16 19 21 23 24
3 3 3 3 4 2 2 2 1 1 0 2 2 2 1 4 5 7 9 10 11 15 18 20 21 23 26
3 5 4 4 3 3 3 2 2 1 0 1 1 1 4 4 8 8 6 11 13 16 18 19 22 24 24
9 5 4 5 6 4 2 2 2 1 1 1 1 2 3 8 7 4 9 12 15 18 19 21 21 24 26
6 6 5 7 6 4 4 4 3 3 3 0 2 2 5 7 2 5 12 12 18 19 19 19 22 25 26
21 19 18 15 13 6 3 4 2 1 3 1 2 2 2 2 3 10 14 16 19 19 18 22 24 25 20
8 14 15 14 11 7 3 3 2 1 2 0 2 2 3 2 5 11 12 16 19 16 20 24 24 17 15
8 7 6 7 8 10 9 3 2 2 1 2 1 2 1 3 3 4 9 15 14 15 18 22 24 22 9
7 5 5 5 4 8 9 9 10 6 4 5 2 2 2 2 3 3 7 13 10 8 17 22 23 22 22
6 5 4 3 7 5 9 12 12 10 7 4 2 1 1 3 5 5 9 3 8 11 14 13 12 16 10
6 5 3 3 3 2 2 2 3 2 6 6 7 1 3 4 2 5 5 3 8 8 10 15 16 15 14
6 6 5 5 4 3 2 2 3 1 2 3 10 12 9 4 2 4 4 3 6 9 11 11 10 13 13
5 5 5 4 3 2 2 2 2 1 2 2 3 4 4 5 8 4 2 3 7 8 8 9 10 12 16
5 4 3 2 4 2 2 1 2 1 2 2 2 1 6 2 3 8 3 6 6 8 6 7 9 11 15
Wind_Direction
85 126 158 163 160 166 169 176 177 195 205 227 260 265 236 263 292 295 294 294 302 308 310 308 309 309 310
131 130 132 144 141 139 157 168 174 194 218 241 271 266 240 266 290 290 290 299 307 310 308 304 306 308 309
137 104 106 137 118 111 148 136 178 205 200 266 255 248 261 282 288 288 302 303 305 303 299 304 308 310 310
115 120 107 97 108 130 140 108 134 166 166 258 269 274 274 289 312 302 298 300 306 304 302 308 312 311 310
127 121 130 148 178 144 130 128 89 124 246 271 318 311 334 328 310 309 310 308 320 316 315 316 313 310 312
129 160 133 129 122 146 128 153 192 5 44 291 92 302 298 298 306 314 321 334 328 326 322 318 315 310 311
155 151 142 157 136 146 144 117 133 311 65 287 32 308 280 321 302 297 341 335 335 332 325 319 314 314 312
102 111 114 133 134 142 136 110 97 69 32 319 0 280 333 309 258 10 343 343 340 330 323 322 320 316 313
100 106 110 118 124 116 122 127 105 99 24 20 349 299 308 282 283 343 352 344 333 328 324 326 323 319 316
75 72 75 88 81 78 122 124 117 82 348 118 341 4 329 280 304 333 337 337 331 325 325 326 325 321 314
92 83 75 70 65 66 69 99 111 92 342 107 29 25 64 307 307 321 325 317 313 308 317 324 326 325 315
102 98 98 89 78 76 79 82 80 105 92 74 122 105 349 304 280 305 307 302 305 308 326 321 321 319 317
112 100 86 96 90 69 81 88 76 69 64 63 113 338 122 245 290 309 326 294 310 330 323 318 312 311 313
110 107 93 78 78 54 64 61 64 17 46 45 7 301 280 241 216 286 295 295 317 318 317 312 311 303 293
118 118 108 103 90 65 49 48 82 29 338 338 343 329 278 222 289 253 273 277 299 309 317 312 308 305 301
107 113 116 111 98 74 73 79 85 345 342 329 342 349 346 316 221 260 271 266 306 305 307 304 308 313 314
111 114 115 111 114 86 105 94 38 30 3 317 30 37 347 312 279 293 300 311 303 306 306 301 295 298 311